This demonstration page uses our WeatherBlox Daily Observations layout. Learn more.

Left ArrowRight Arrow

36.19886, -115.1175

Hourly Observations for November 4, 2015

Temp ( °F °C ) Dew Point ( °F °C ) Humidity (%) Winds ( mph kmh ) Pressure ( in mb ) Visibility ( mi km ) Precip ( " mm )
12:53 am 00:53 Mostly Cloudy 54 12.2 35 1.7 49 49 N 5 7 29.79 1009 10 16 0.00 0.00
1:53 am 01:53 Clear 52 11.1 34 1.1 50 50 NNW 5 7 29.79 1009 10 16 0.00 0.00
2:53 am 02:53 Cloudy 52 11.1 34 1.1 50 50 SSW 3 6 29.79 1009 10 16 0.00 0.00
3:53 am 03:53 Cloudy 54 12.2 33 0.6 45 45 N 10 17 29.79 1009 10 16 0.00 0.00
4:53 am 04:53 Cloudy 53 11.7 33 0.6 47 47 N 13 20 29.81 1010 10 16 0.00 0.03
5:53 am 05:53 Cloudy with Light Rain 50 10 37 2.8 61 61 WNW 12 19 29.85 1011 10 16 0.00 0.03
6:53 am 06:53 Cloudy 50 10 38 3.3 63 63 NW 13 20 29.86 1011 10 16 0.04 1.02
7:53 am 07:53 Cloudy with Rain 47 8.3 39 3.9 74 74 W 16 26 29.91 1013 6 10 0.02 0.51
8:53 am 08:53 Cloudy with Light Rain 44 6.7 38 3.3 79 79 NNW 12 19 29.92 1013 10 16 0.09 2.29
9:53 am 09:53 Mostly Sunny 49 9.4 39 3.9 69 69 NW 18 30 29.91 1013 10 16 0.00 0.03
10:53 am 10:53 Sunny 52 11.1 39 3.9 61 61 NNW 13 20 29.91 1013 10 16 0.00 0.00
11:53 am 11:53 Partly Cloudy 53 11.7 38 3.3 57 57 E 9 15 29.90 1012 10 16 0.00 0.00
12:53 pm 12:53 Mostly Sunny 53 11.7 36 2.2 52 52 SE 8 13 29.89 1012 10 16 0.00 0.00
1:53 pm 13:53 Cloudy 53 11.7 35 1.7 51 51 SSW 7 11 29.91 1013 10 16 0.00 0.00
2:53 pm 14:53 Mostly Cloudy 54 12.2 35 1.7 49 49 E 7 11 29.92 1013 10 16 0.00 0.00
3:53 pm 15:53 Mostly Cloudy 51 10.6 39 3.9 64 64 NE 13 20 29.95 1014 10 16 0.00 0.00
4:53 pm 16:53 Cloudy 51 10.6 34 1.1 52 52 N 14 22 29.97 1015 10 16 0.00 0.00
5:53 pm 17:53 Cloudy 51 10.6 34 1.1 52 52 N 12 19 30.00 1016 10 16 0.00 0.00
6:53 pm 18:53 Cloudy 51 10.6 35 1.7 54 54 NNW 21 33 30.02 1017 10 16 0.00 0.00
7:53 pm 19:53 Cloudy 50 10 35 1.7 57 57 NNW 15 24 30.04 1017 10 16 0.00 0.03
8:53 pm 20:53 Clear 50 10 35 1.7 57 57 NNW 14 22 30.07 1018 10 16 0.00 0.00
9:53 pm 21:53 Clear 49 9.4 33 0.6 55 55 N 13 20 30.09 1019 10 16 0.00 0.00
10:53 pm 22:53 Clear 49 9.4 30 -1.1 48 48 N 13 20 30.10 1019 10 16 0.00 0.00
11:53 pm 23:53 Clear 49 9.4 26 -3.3 41 41 N 20 31 30.12 1020 10 16 0.00 0.00

Powered by AerisWeather